Location: High Meadows Obseravatory
(40.7417°N, 111.5713°W)
Time: 20:12:21
(UTC-07:00)

X-37B - Pass Details

Date: 26 October 2021
Orbit: 330 x 341 km, 45.0° (Epoch: 20 November)

Event Time Altitude Azimuth Distance (km) Brightness Sun altitude
Rises 19:55:25 0° 287° (WNW) 2,119 5.7 -16.8°
Reaches altitude 10° 19:57:34 10° 276° (W) 1,278 4.5 -17.2°
Maximum altitude 20:00:08 30° 212° (SSW) 637 2.0 -17.7°
Enters shadow 20:01:05 24° 175° (S) 758 2.0 -17.9°
